#timestamp,LO_Frequency,Hit,StdDev 
1590170415.4,286047000.6,N
1590170435.2,286047002.4,N
1590170455.0,286046998.6,N
1590170455.9,286046998.6,N
1590170475.8,286046998.4,N
1590170495.6,286047000.6,N
1590170515.4,286046999.7,N
1590170535.3,286047002.6,N
1590170555.1,286047002.6,N
1590170575.9,286047004.3,Y
1590170595.7,286047001.7,P
1590170615.5,286047001.7,P
1590170635.4,286047004.1,P
1590170655.2,286047003.5,N
1590170675.0,286047007.1,Y
1590170675.9,286047007.1,P
1590170695.8,286047001.8,N
1590170715.6,286047001.5,N
1590170735.5,286047001.6,N
1590170755.3,286047006.0,N
1590170775.1,286047003.6,N
1590170795.9,286047001.3,N
1590170815.7,286047003.0,N
1590170835.5,286047003.8,N
1590170855.4,286047003.7,N
1590170875.2,286047004.1,N
1590170895.0,286047004.0,N
1590170896.0,286047004.0,N
1590170915.8,286047001.9,N
1590170935.6,286047001.7,N
1590170955.5,286047002.3,N
1590170975.3,286047000.5,N
1590170995.1,286047001.0,N
1590171015.9,286047001.1,N
1590171035.7,286047001.2,N
1590171055.5,286046998.8,N
1590171075.4,286046998.3,N
1590171095.2,286047000.8,N
1590171115.1,286047000.3,N
1590171116.0,286047000.3,N
1590171135.8,286046998.4,N
1590171155.6,286046999.4,N
1590171175.5,286046999.1,N
1590171195.3,286046998.6,N
1590171215.1,286047000.6,N
1590171235.9,286046998.8,N
1590171255.7,286046998.4,N
1590171275.5,286046998.2,N
1590171295.4,286046998.3,N
1590171315.2,286046996.9,N
1590171335.1,286046996.7,N
1590171336.0,286046996.7,N
1590171355.8,286046999.1,N
1590171375.6,286046999.6,N
1590171395.5,286046999.0,N
1590171415.3,286046998.6,N
1590171435.1,286046998.4,N
1590171455.9,286046998.6,N
1590171475.7,286046998.1,N
1590171495.6,286046998.7,N
1590171515.4,286046998.9,N
1590171535.2,286047001.2,N
1590171555.1,286046998.7,N
1590171556.0,286046998.7,N
1590171575.8,286046998.7,N
1590171595.6,286046999.3,N
1590171615.5,286046998.5,N
1590171635.3,286047002.6,N
1590171655.2,286047001.2,N
1590171675.9,286046997.2,N
1590171695.7,286046999.2,N
1590171715.6,286046999.0,N
1590171735.4,286046996.6,N
1590171755.2,286046996.6,N
1590171775.1,286046998.5,N
1590171776.0,286046998.5,N
1590171795.8,286047001.2,N
1590171815.7,286046999.4,N
1590171835.5,286046998.9,N
1590171855.3,286046997.3,N
1590171875.2,286046995.3,Y
1590171895.0,286046997.7,P
1590171895.9,286046997.7,P
1590171915.8,286046996.8,P
1590171935.6,286046996.9,Y
1590171955.4,286047000.4,P
1590171975.3,286047000.5,N
1590171995.1,286047001.0,N
1590172015.8,286047002.7,N
1590172035.7,286047001.6,N
1590172055.5,286046999.8,N
1590172075.4,286047000.1,N
1590172095.2,286047000.4,N
1590172115.0,286047000.5,N
1590172115.9,286047000.5,N
1590172135.8,286047002.7,N
1590172155.6,286047002.8,N
1590172175.4,286047002.7,N
1590172195.3,286047004.0,N
1590172215.1,286047003.7,N
1590172235.9,286047005.1,Y
1590172255.7,286047003.8,P
1590172275.5,286047002.1,N
1590172295.4,286047002.4,N
1590172315.2,286047002.5,N
1590172335.0,286047000.5,N
1590172335.9,286047000.5,N
1590172355.8,286047000.1,N
1590172375.6,286047000.8,N
1590172395.5,286046999.9,N
1590172415.3,286047001.1,N
1590172435.1,286046998.2,N
1590172455.9,286047000.7,N
1590172475.7,286046999.7,N
1590172495.5,286047000.5,N
1590172515.4,286046999.8,N
1590172535.2,286046998.2,N
1590172555.0,286047000.1,N
1590172556.0,286047000.1,N
1590172575.8,286047002.0,N
1590172595.6,286047002.4,N
1590172615.5,286047001.3,N
1590172635.3,286047000.3,N
1590172655.1,286047000.9,N
1590172675.9,286047000.6,N
1590172695.7,286046999.9,N
1590172715.5,286047000.7,N
1590172735.4,286047000.6,N
1590172755.2,286047000.1,N
1590172775.1,286047001.0,N
1590172776.0,286047001.0,N
1590172795.8,286046999.9,N
1590172815.6,286046999.5,N
1590172835.5,286046998.9,N
1590172855.3,286046998.1,N
1590172875.1,286047000.8,N
1590172895.9,286046998.5,N
1590172915.7,286047000.6,N
1590172935.6,286046998.4,N
1590172955.4,286047001.0,N
1590172975.2,286046998.5,N
1590172995.1,286046996.5,Y
1590172996.0,286046996.5,P
1590173015.8,286046998.9,N
1590173035.7,286046999.3,N
1590173055.5,286046999.2,N
1590173075.3,286046996.5,N
1590173095.2,286046998.3,N
1590173115.9,286046999.7,N
1590173135.7,286047002.1,N
1590173155.6,286047004.2,N
1590173175.4,286047003.1,N
1590173195.2,286047003.5,N
1590173215.1,286047003.8,N
1590173216.0,286047003.8,N
1590173235.8,286047006.0,N
1590173255.7,286047005.8,N
1590173275.5,286047007.1,N
1590173295.3,286047009.0,N
1590173315.2,286047010.8,Y
1590173335.0,286047009.1,P
1590173335.9,286047009.1,N
1590173355.8,286047006.6,N
1590173375.6,286047006.1,N
1590173395.4,286047007.4,N
1590173415.3,286047007.6,Y
1590173435.1,286046998.7,P
1590173455.8,286046998.7,N
1590173475.7,286046997.5,N
1590173495.5,286046997.6,N
1590173515.4,286046995.4,N
1590173535.2,286046996.9,N
1590173555.0,286046998.5,N
1590173555.9,286046998.5,N
1590173575.8,286046999.2,N
1590173595.6,286047000.8,N
1590173615.4,286046999.1,N
1590173635.3,286046996.9,N
1590173655.1,286046996.5,N
1590173675.9,286046998.4,N
1590173695.7,286046997.7,N
1590173715.5,286046995.6,N
1590173735.4,286046995.5,N
1590173755.2,286046995.1,N
1590173775.0,286046997.5,N
1590173775.9,286046997.5,N
1590173795.8,286046997.0,N
1590173815.6,286047000.7,N
1590173835.5,286047000.6,N
1590173855.3,286047000.5,N
1590173875.1,286046998.4,N
1590173895.9,286046998.3,N
1590173915.7,286047000.6,N
1590173935.6,286047001.1,N
1590173955.4,286046999.1,N
1590173975.2,286046999.5,N
1590173995.1,286046998.3,N
1590173996.0,286046998.3,N
